timestamp,wind_dir_avg,wind_spd_max_dir,wind_spd_avg,wind_spd_gust,battery_voltage,lat,long
2017-10-04 00:00:00+00:00,39.0,43.0,7.06,8.24,12.7,47.59359,-54.27349
2017-10-04 00:10:00+00:00,31.0,26.0,7.5,8.43,12.6,47.59359,-54.27349
2017-10-04 00:20:00+00:00,32.0,25.0,6.68,7.39,12.7,47.59359,-54.27349
2017-10-04 00:30:00+00:00,35.0,34.0,6.34,7.33,12.7,47.59359,-54.27349
2017-10-04 00:40:00+00:00,35.0,38.0,6.28,7.24,12.7,47.59359,-54.27349
2017-10-04 00:50:00+00:00,29.0,31.0,6.61,7.79,12.7,47.59359,-54.27349
2017-10-04 01:00:00+00:00,32.0,34.0,6.54,7.34,12.6,47.59359,-54.27349
2017-10-04 01:10:00+00:00,37.0,44.0,5.79,6.68,12.6,47.59359,-54.27349
2017-10-04 01:20:00+00:00,25.0,25.0,5.16,6.39,12.7,47.59359,-54.27349
2017-10-04 01:30:00+00:00,31.0,34.0,5.46,6.79,12.7,47.59359,-54.27349
2017-10-04 01:40:00+00:00,20.0,17.0,4.24,5.59,12.7,47.59359,-54.27349
2017-10-04 01:50:00+00:00,353.0,357.0,4.39,5.18,12.7,47.59359,-54.27349
2017-10-04 02:00:00+00:00,327.0,330.0,3.7,4.54,12.6,47.59359,-54.27349
2017-10-04 02:10:00+00:00,334.0,336.0,4.81,5.51,12.6,47.59359,-54.27349
2017-10-04 02:20:00+00:00,346.0,351.0,3.68,4.14,12.6,47.59359,-54.27349
2017-10-04 02:30:00+00:00,327.0,337.0,4.44,5.09,12.6,47.59359,-54.27349
2017-10-04 02:40:00+00:00,340.0,344.0,4.38,5.25,12.7,47.59359,-54.27349
2017-10-04 02:50:00+00:00,2.0,1.0,4.51,5.14,12.7,47.59359,-54.27349
2017-10-04 03:00:00+00:00,16.0,18.0,4.26,5.29,12.6,47.59359,-54.27349
2017-10-04 03:10:00+00:00,345.0,347.0,4.53,5.45,12.6,47.59359,-54.27349
2017-10-04 03:20:00+00:00,335.0,335.0,6.34,7.07,12.6,47.59359,-54.27349
2017-10-04 03:30:00+00:00,332.0,328.0,6.09,6.67,12.6,47.59359,-54.27349
2017-10-04 03:40:00+00:00,326.0,324.0,4.76,5.31,12.6,47.59359,-54.27349
2017-10-04 03:50:00+00:00,325.0,328.0,4.35,5.25,12.6,47.59359,-54.27349
2017-10-04 04:00:00+00:00,325.0,319.0,4.22,4.95,12.6,47.59359,-54.27349
2017-10-04 04:10:00+00:00,336.0,339.0,3.52,4.38,12.6,47.59359,-54.27349
2017-10-04 04:20:00+00:00,337.0,340.0,4.1,4.7,12.6,47.59359,-54.27349
2017-10-04 04:30:00+00:00,354.0,358.0,6.15,7.01,12.6,47.59359,-54.27349
2017-10-04 04:40:00+00:00,344.0,344.0,5.86,7.29,12.6,47.59359,-54.27349
2017-10-04 04:50:00+00:00,351.0,346.0,6.93,7.73,12.6,47.59359,-54.27349
2017-10-04 05:00:00+00:00,343.0,348.0,6.54,7.59,12.6,47.59359,-54.27349
2017-10-04 05:10:00+00:00,341.0,347.0,8.13,9.23,12.6,47.59359,-54.27349
2017-10-04 05:20:00+00:00,350.0,352.0,5.8,6.51,12.6,47.59359,-54.27349
2017-10-04 05:30:00+00:00,342.0,345.0,5.29,6.22,12.6,47.59359,-54.27349
2017-10-04 05:40:00+00:00,348.0,354.0,5.33,6.07,12.6,47.59359,-54.27349
2017-10-04 05:50:00+00:00,355.0,359.0,4.53,4.97,12.6,47.59359,-54.27349
2017-10-04 06:00:00+00:00,339.0,335.0,4.32,4.99,12.6,47.59359,-54.27349
2017-10-04 06:10:00+00:00,342.0,341.0,3.75,4.4,12.5,47.59359,-54.27349
2017-10-04 06:20:00+00:00,329.0,337.0,3.89,4.78,12.6,47.59359,-54.27349
2017-10-04 06:30:00+00:00,291.0,292.0,6.19,8.22,12.6,47.59359,-54.27349
2017-10-04 06:40:00+00:00,300.0,302.0,5.0,5.78,12.6,47.59359,-54.27349
2017-10-04 06:50:00+00:00,304.0,304.0,3.82,4.32,12.6,47.59359,-54.27349
2017-10-04 07:00:00+00:00,302.0,304.0,4.69,5.98,12.6,47.59359,-54.27349
2017-10-04 07:10:00+00:00,316.0,314.0,5.35,6.31,12.5,47.59359,-54.27349
2017-10-04 07:20:00+00:00,303.0,318.0,3.73,4.68,12.6,47.59359,-54.27349
2017-10-04 07:30:00+00:00,309.0,316.0,2.69,3.28,12.6,47.59359,-54.27349
2017-10-04 07:40:00+00:00,308.0,308.0,2.3,3.19,12.6,47.59359,-54.27349
2017-10-04 07:50:00+00:00,295.0,294.0,2.88,3.43,12.6,47.59359,-54.27349
2017-10-04 08:00:00+00:00,284.0,286.0,4.14,5.22,12.6,47.59359,-54.27349
2017-10-04 08:10:00+00:00,298.0,302.0,3.8,4.4,12.5,47.59359,-54.27349
2017-10-04 08:20:00+00:00,300.0,296.0,3.55,4.04,12.6,47.59359,-54.27349
2017-10-04 08:30:00+00:00,305.0,312.0,2.76,3.57,12.6,47.59359,-54.27349
2017-10-04 08:40:00+00:00,321.0,322.0,2.54,3.01,12.6,47.59359,-54.27349
2017-10-04 08:50:00+00:00,339.0,337.0,2.42,3.17,12.6,47.59359,-54.27349
2017-10-04 09:00:00+00:00,332.0,329.0,2.34,3.12,12.5,47.59359,-54.27349
2017-10-04 09:10:00+00:00,312.0,304.0,2.44,3.23,12.5,47.59359,-54.27349
2017-10-04 09:20:00+00:00,306.0,304.0,2.42,3.27,12.6,47.59359,-54.27349
2017-10-04 09:30:00+00:00,295.0,297.0,1.71,2.21,12.6,47.59359,-54.27349
2017-10-04 09:40:00+00:00,300.0,304.0,3.21,4.0,12.6,47.59359,-54.27349
2017-10-04 09:50:00+00:00,286.0,282.0,4.16,5.05,12.6,47.59359,-54.27349
2017-10-04 10:00:00+00:00,286.0,290.0,5.05,5.98,12.8,47.59359,-54.27349
2017-10-04 10:10:00+00:00,294.0,292.0,4.88,5.33,13.3,47.59359,-54.27349
2017-10-04 10:20:00+00:00,303.0,301.0,4.02,4.6,13.8,47.59359,-54.27349
2017-10-04 10:30:00+00:00,295.0,303.0,4.03,5.55,13.8,47.59359,-54.27349
2017-10-04 10:40:00+00:00,324.0,320.0,3.51,4.14,13.7,47.59359,-54.27349
2017-10-04 10:50:00+00:00,301.0,303.0,5.43,6.31,14.3,47.59359,-54.27349
2017-10-04 11:00:00+00:00,304.0,304.0,5.07,6.05,13.6,47.59359,-54.27349
2017-10-04 11:10:00+00:00,299.0,296.0,6.53,7.73,13.5,47.59359,-54.27349
2017-10-04 11:20:00+00:00,286.0,293.0,6.68,8.0,13.7,47.59359,-54.27349
2017-10-04 11:30:00+00:00,285.0,286.0,7.45,8.6,13.9,47.59359,-54.27349
2017-10-04 11:40:00+00:00,291.0,291.0,6.09,7.32,13.9,47.59359,-54.27349
2017-10-04 11:50:00+00:00,286.0,285.0,5.75,6.73,13.8,47.59359,-54.27349
2017-10-04 12:00:00+00:00,276.0,274.0,4.47,4.99,13.6,47.59359,-54.27349
2017-10-04 12:10:00+00:00,283.0,284.0,5.52,6.58,13.8,47.59359,-54.27349
2017-10-04 12:20:00+00:00,290.0,287.0,4.58,6.32,13.7,47.59359,-54.27349
2017-10-04 12:30:00+00:00,292.0,295.0,4.29,4.9,13.9,47.59359,-54.27349
2017-10-04 12:40:00+00:00,277.0,279.0,5.44,6.33,14.0,47.59359,-54.27349
2017-10-04 12:50:00+00:00,280.0,284.0,4.93,5.69,13.7,47.59359,-54.27349
2017-10-04 13:00:00+00:00,282.0,276.0,5.45,6.64,13.7,47.59359,-54.27349
2017-10-04 13:10:00+00:00,300.0,301.0,6.21,7.2,13.8,47.59359,-54.27349
2017-10-04 13:20:00+00:00,291.0,285.0,4.89,5.8,13.7,47.59359,-54.27349
2017-10-04 13:30:00+00:00,293.0,290.0,7.76,8.36,13.7,47.59359,-54.27349
2017-10-04 13:40:00+00:00,294.0,294.0,7.73,9.04,14.1,47.59359,-54.27349
2017-10-04 13:50:00+00:00,291.0,289.0,6.14,7.49,13.8,47.59359,-54.27349
2017-10-04 14:00:00+00:00,293.0,295.0,6.54,7.37,13.8,47.59359,-54.27349
2017-10-04 14:10:00+00:00,283.0,285.0,6.93,7.75,13.8,47.59359,-54.27349
2017-10-04 14:20:00+00:00,278.0,281.0,7.33,8.44,13.7,47.59359,-54.27349
2017-10-04 14:30:00+00:00,282.0,281.0,6.62,7.46,13.7,47.59359,-54.27349
2017-10-04 14:40:00+00:00,283.0,290.0,7.38,8.31,13.7,47.59359,-54.27349
2017-10-04 14:50:00+00:00,290.0,276.0,7.83,10.54,13.7,47.59359,-54.27349
2017-10-04 15:00:00+00:00,281.0,274.0,9.05,11.89,13.7,47.59359,-54.27349
2017-10-04 15:10:00+00:00,282.0,286.0,7.31,8.3,13.7,47.59359,-54.27349
2017-10-04 15:20:00+00:00,269.0,266.0,8.32,9.23,13.7,47.59359,-54.27349
2017-10-04 15:30:00+00:00,270.0,277.0,7.1,8.31,13.8,47.59359,-54.27349
2017-10-04 15:40:00+00:00,281.0,281.0,7.1,8.32,13.6,47.59359,-54.27349
2017-10-04 15:50:00+00:00,277.0,277.0,7.39,8.12,13.8,47.59359,-54.27349
2017-10-04 16:00:00+00:00,274.0,281.0,6.15,7.26,13.6,47.59359,-54.27349
2017-10-04 16:10:00+00:00,266.0,264.0,6.56,7.53,13.7,47.59359,-54.27349
2017-10-04 16:20:00+00:00,273.0,277.0,7.55,8.87,14.2,47.59359,-54.27349
2017-10-04 16:30:00+00:00,266.0,264.0,8.26,10.23,13.8,47.59359,-54.27349
2017-10-04 16:40:00+00:00,245.0,244.0,6.74,7.91,13.9,47.59359,-54.27349
2017-10-04 16:50:00+00:00,255.0,259.0,5.9,6.97,13.7,47.59359,-54.27349
2017-10-04 17:00:00+00:00,271.0,279.0,7.81,9.15,13.9,47.59359,-54.27349
2017-10-04 17:10:00+00:00,273.0,276.0,5.46,6.61,13.7,47.59359,-54.27349
2017-10-04 17:20:00+00:00,266.0,270.0,7.09,7.93,13.7,47.59359,-54.27349
2017-10-04 17:30:00+00:00,265.0,269.0,8.87,10.0,13.7,47.59359,-54.27349
2017-10-04 17:40:00+00:00,258.0,259.0,8.08,9.42,13.7,47.59359,-54.27349
2017-10-04 17:50:00+00:00,285.0,286.0,7.08,8.1,13.7,47.59359,-54.27349
2017-10-04 18:00:00+00:00,263.0,267.0,8.47,9.64,14.0,47.59359,-54.27349
2017-10-04 18:10:00+00:00,290.0,285.0,8.08,10.14,14.0,47.59359,-54.27349
2017-10-04 18:20:00+00:00,285.0,283.0,8.92,9.81,13.7,47.59359,-54.27349
2017-10-04 18:30:00+00:00,272.0,276.0,7.03,8.39,13.9,47.59359,-54.27349
2017-10-04 18:40:00+00:00,273.0,273.0,8.3,9.09,14.1,47.59359,-54.27349
2017-10-04 18:50:00+00:00,281.0,281.0,7.49,8.4,14.1,47.59359,-54.27349
2017-10-04 19:00:00+00:00,276.0,279.0,7.04,8.29,13.9,47.59359,-54.27349
2017-10-04 19:10:00+00:00,272.0,269.0,5.06,5.71,13.7,47.59359,-54.27349
2017-10-04 19:20:00+00:00,273.0,267.0,6.31,7.71,13.8,47.59359,-54.27349
2017-10-04 19:30:00+00:00,267.0,269.0,4.67,6.11,13.8,47.59359,-54.27349
2017-10-04 19:40:00+00:00,272.0,276.0,5.74,6.34,13.7,47.59359,-54.27349
2017-10-04 19:50:00+00:00,262.0,264.0,4.76,5.42,13.7,47.59359,-54.27349
2017-10-04 20:00:00+00:00,253.0,255.0,4.67,6.23,13.6,47.59359,-54.27349
2017-10-04 20:10:00+00:00,246.0,250.0,4.64,5.26,13.4,47.59359,-54.27349
2017-10-04 20:20:00+00:00,257.0,258.0,5.44,6.59,13.4,47.59359,-54.27349
2017-10-04 20:30:00+00:00,267.0,263.0,3.78,4.35,13.4,47.59359,-54.27349
2017-10-04 20:40:00+00:00,278.0,288.0,4.65,5.98,13.4,47.59359,-54.27349
2017-10-04 20:50:00+00:00,264.0,265.0,3.69,4.27,13.3,47.59359,-54.27349
2017-10-04 21:00:00+00:00,263.0,267.0,4.73,5.65,13.2,47.59359,-54.27349
2017-10-04 21:10:00+00:00,256.0,257.0,3.57,4.53,13.0,47.59359,-54.27349
2017-10-04 21:20:00+00:00,278.0,278.0,3.7,4.89,13.0,47.59359,-54.27349
2017-10-04 21:30:00+00:00,274.0,267.0,3.34,4.09,13.0,47.59359,-54.27349
2017-10-04 21:40:00+00:00,270.0,271.0,5.0,6.36,12.9,47.59359,-54.27349
2017-10-04 21:50:00+00:00,264.0,263.0,4.36,5.26,12.9,47.59359,-54.27349
2017-10-04 22:00:00+00:00,270.0,269.0,5.9,6.23,12.8,47.59359,-54.27349
2017-10-04 22:10:00+00:00,255.0,256.0,4.86,5.42,12.7,47.59359,-54.27349
2017-10-04 22:20:00+00:00,252.0,256.0,5.29,5.91,12.8,47.59359,-54.27349
2017-10-04 22:30:00+00:00,260.0,264.0,6.06,6.52,12.8,47.59359,-54.27349
2017-10-04 22:40:00+00:00,263.0,266.0,4.35,5.06,12.8,47.59359,-54.27349
2017-10-04 22:50:00+00:00,268.0,273.0,4.95,5.53,12.8,47.59359,-54.27349
2017-10-04 23:00:00+00:00,264.0,258.0,5.44,6.22,12.7,47.59359,-54.27349
2017-10-04 23:10:00+00:00,268.0,267.0,5.04,5.97,12.6,47.59359,-54.27349
2017-10-04 23:20:00+00:00,255.0,256.0,4.7,5.24,12.7,47.59359,-54.27349
2017-10-04 23:30:00+00:00,247.0,240.0,4.41,4.83,12.7,47.59359,-54.27349
2017-10-04 23:40:00+00:00,254.0,249.0,5.92,6.78,12.7,47.59359,-54.27349
2017-10-04 23:50:00+00:00,253.0,257.0,5.33,6.36,12.7,47.59359,-54.27349
